{"data":{"norad_id":68936,"epoch":"2026-05-24T12:21:59.357376Z","epoch_age_seconds":120089,"freshness":"FRESH","line1":"1 68936U 26098T   26144.51527034  .00006644  00000+0  24147-3 0  9991","line2":"2 68936  51.8750 182.3403 0016645  64.9183 295.3526 15.29365521  3705","mean_motion":15.29365521,"eccentricity":0.0016645,"inclination_deg":51.875,"raan_deg":182.3403,"arg_perigee_deg":64.9183,"mean_anomaly_deg":295.3526,"bstar":0.00024147,"rev_number":370,"period_min":94.156693100969,"perigee_km":466.29625247581,"apogee_km":489.1193598355,"semimajor_km":6855.8448061557,"source":"CELESTRAK","updated_at":"2026-05-25T13:38:08.796043Z"}}